1534932000.68,55202,22.19,74616.0,19.19,-9.37,-10.45,0,*70
1534932001.93,55203,22.19,74612.8,19.17,-8.41,-9.61,0,*41
1534932003.12,55204,22.19,74616.0,19.19,-9.79,-11.15,0,*78
1534932004.34,55205,22.19,74612.5,19.19,-10.05,-11.29,0,*45
1534932005.53,55206,22.19,74612.3,19.15,-8.67,-9.75,0,*47
1534932006.76,55207,22.19,74614.3,19.17,-9.23,-10.45,0,*7E
1534932007.96,55208,22.19,74614.8,19.15,-9.01,-10.19,0,*7A
1534932009.18,55209,22.19,74620.5,19.15,-7.77,-8.85,0,*48
1534932010.4,55210,22.19,74620.0,19.17,-7.11,-8.21,0,*4C
1534932011.64,55211,22.19,74618.3,19.19,-7.31,-8.51,0,*46
1534932012.85,55212,22.19,74618.8,19.19,-7.95,-9.05,0,*4B
1534932014.07,55213,22.19,74618.3,19.21,-7.19,-8.21,0,*42
1534932015.29,55214,22.19,74616.8,19.23,-7.65,-8.85,0,*42
1534932016.52,55215,22.19,74616.8,19.25,-8.07,-9.23,0,*43
1534932017.74,55216,22.19,74620.0,19.25,-7.15,-8.29,0,*47
1534932018.97,55217,22.19,74618.3,19.25,-8.21,-9.15,0,*40
1534932020.19,55218,22.19,74622.5,19.27,-8.37,-9.45,0,*4F
1534932021.38,55219,22.19,74620.0,19.27,-8.41,-9.67,0,*4F
1534932022.59,55220,22.19,74622.3,19.27,-8.03,-9.19,0,*4A
1534932023.82,55221,22.19,74616.5,19.27,-9.37,-10.53,0,*7B
1534932025.04,55222,22.19,74618.0,19.27,-10.57,-11.81,0,*48
1534932026.28,55223,22.19,74618.0,19.25,-10.05,-11.29,0,*4E
1534932027.48,55224,22.19,74620.0,19.23,-9.71,-10.97,0,*70
1534932028.7,55225,22.19,74620.0,19.23,-10.49,-11.81,0,*44
1534932029.92,55226,22.19,74618.0,19.21,-10.85,-12.29,0,*44
1534932031.13,55227,22.19,74616.8,19.19,-9.61,-10.85,0,*78
1534932032.38,55228,22.19,74620.8,19.19,-7.99,-9.11,0,*4B
1534932033.59,55229,22.19,74618.8,19.21,-6.73,-7.83,0,*41
1534932034.83,55230,22.19,74616.0,19.21,-6.35,-7.39,0,*4A
1534932036.08,55231,22.19,74616.0,19.25,-5.81,-6.81,0,*41
1534932037.27,55232,22.25,74622.5,19.31,-5.35,-6.35,0,*47
1534932038.49,55233,22.19,74624.0,19.35,-5.55,-6.55,0,*42
1534932039.74,55234,22.19,74618.3,19.39,-6.09,-6.97,0,*4D
1534932040.96,55235,22.19,74622.5,19.39,-5.51,-6.43,0,*4B
1534932042.21,55236,22.19,74620.0,19.43,-4.99,-5.89,0,*45
1534932043.44,55237,22.19,74618.5,19.47,-4.93,-5.97,0,*45
1534932044.63,55238,22.19,74616.3,19.53,-5.43,-6.47,0,*4D
1534932045.87,55239,22.19,74618.3,19.55,-5.81,-6.77,0,*47
1534932047.11,55240,22.19,74622.0,19.57,-5.85,-6.93,0,*45
1534932048.33,55241,22.19,74620.0,19.59,-6.01,-7.19,0,*46
1534932049.52,55242,22.19,74622.3,19.61,-6.09,-7.15,0,*4A
1534932050.74,55243,22.19,74620.3,19.61,-5.31,-6.35,0,*40
1534932051.99,55244,22.25,74624.3,19.65,-5.61,-6.55,0,*40
1534932053.21,55245,22.19,74620.3,19.65,-4.37,-5.35,0,*46
1534932054.45,55246,22.19,74620.0,19.71,-4.89,-5.81,0,*4A
1534932055.66,55247,22.19,74618.5,19.75,-6.05,-7.05,0,*47
1534932056.85,55248,22.19,74620.0,19.75,-5.51,-6.43,0,*49
1534932058.04,55249,22.19,74622.3,19.79,-6.13,-7.15,0,*43
1534932059.26,55250,22.19,74616.0,19.79,-6.35,-7.35,0,*4D
1534932060.51,55251,22.19,74622.3,19.83,-5.93,-7.01,0,*41
1534932061.75,55252,22.19,74620.8,19.81,-6.39,-7.35,0,*44
1534932063.02,55253,22.19,74620.3,19.85,-5.03,-5.65,0,*4C
1534932064.2,55254,22.19,74620.3,19.87,-4.99,-5.97,0,*46
1534932065.44,55255,22.19,74616.8,19.89,-4.73,-5.51,0,*47
1534932066.68,55256,22.19,74616.5,19.91,-7.01,-7.99,0,*4D
1534932067.9,55257,22.19,74620.8,19.91,-6.89,-7.91,0,*45
1534932069.14,55258,22.19,74620.0,19.93,-8.17,-9.37,0,*43
1534932070.37,55259,22.19,74618.5,19.93,-8.71,-9.93,0,*4C
1534932071.6,55260,22.19,74620.3,19.91,-8.81,-10.15,0,*7D
1534932072.83,55261,22.19,74620.5,19.89,-8.97,-10.15,0,*72
1534932074.02,55262,22.19,74620.3,19.87,-8.63,-9.71,0,*4E
1534932075.24,55263,22.19,74622.5,19.87,-8.25,-9.45,0,*4A
1534932076.44,55264,22.19,74622.5,19.87,-9.71,-10.89,0,*75
1534932077.68,55265,22.19,74622.8,19.85,-8.03,-9.01,0,*4A
1534932078.93,55266,22.19,74620.5,19.85,-8.41,-9.53,0,*48
1534932080.2,55267,22.19,74620.5,19.85,-6.97,-7.99,0,*44
1534932081.44,55268,22.19,74620.5,19.85,-5.69,-6.59,0,*44
1534932082.63,55269,22.19,74620.5,19.87,-6.51,-7.49,0,*4F
1534932083.85,55270,22.19,74620.0,19.87,-6.23,-7.19,0,*47
1534932085.12,55271,22.19,74622.8,19.89,-5.65,-6.63,0,*45
1534932086.34,55272,22.19,74618.5,19.95,-5.65,-6.81,0,*47
1534932087.55,55273,22.19,74616.3,19.95,-7.65,-8.71,0,*45
1534932088.8,55274,22.19,74620.0,19.95,-6.93,-7.91,0,*4B
1534932090.01,55275,22.19,74622.3,19.95,-5.39,-6.23,0,*41
1534932091.27,55276,22.19,74622.8,20.01,-4.77,-5.81,0,*45
1534932092.48,55277,22.19,74620.5,20.03,-5.15,-6.05,0,*4C
1534932093.74,55278,22.19,74620.0,20.05,-4.21,-5.11,0,*45
1534932094.96,55279,22.19,74620.8,20.11,-3.91,-4.93,0,*46
1534932096.18,55280,22.19,74620.0,20.11,-5.31,-6.39,0,*4E
1534932097.38,55281,22.25,74624.3,20.15,-6.05,-7.11,0,*44
1534932098.61,55282,22.19,74620.0,20.15,-6.55,-7.73,0,*46
1534932099.83,55283,22.19,74622.5,20.15,-7.61,-8.71,0,*4C
1534932101.04,55284,22.19,74624.3,20.15,-7.43,-8.55,0,*4D
1534932102.27,55285,22.19,74626.5,20.15,-6.01,-6.97,0,*4B
1534932103.51,55286,22.19,74626.8,20.17,-8.11,-9.19,0,*4C
1534932104.73,55287,22.19,74626.5,20.15,-9.23,-10.35,0,*79
1534932105.95,55288,22.19,74626.8,20.13,-9.79,-11.15,0,*7C
1534932107.17,55289,22.19,74622.8,20.11,-9.45,-10.57,0,*77
1534932108.43,55290,22.19,74624.8,20.07,-9.45,-10.75,0,*78
1534932109.63,55291,22.19,74620.0,20.07,-10.01,-11.45,0,*43
1534932110.82,55292,22.19,74626.0,20.03,-9.89,-11.19,0,*75
1534932112.06,55293,22.19,74618.3,20.03,-9.61,-11.07,0,*7D
1534932113.29,55294,22.19,74618.3,20.01,-11.11,-12.47,0,*41
1534932114.52,55295,22.25,74620.8,19.93,-10.89,-12.29,0,*49
1534932115.8,55296,22.25,74620.5,19.89,-10.75,-11.93,0,*40
1534932116.99,55297,22.19,74618.8,19.91,-9.89,-11.19,0,*71
1534932118.27,55298,22.19,74614.8,19.89,-10.71,-11.97,0,*4E
1534932119.5,55299,22.19,74616.0,19.89,-10.89,-12.25,0,*42
1534932120.76,55300,22.19,74618.5,19.81,-11.41,-12.79,0,*47
1534932122.02,55301,22.19,74614.3,19.81,-11.51,-12.97,0,*47
1534932123.22,55302,22.19,74612.3,19.79,-11.01,-12.47,0,*4B
1534932124.5,55303,22.19,74608.0,19.77,-10.75,-12.15,0,*41
1534932125.7,55304,22.19,74604.0,19.71,-11.19,-12.47,0,*4C
1534932126.95,55305,22.19,74602.0,19.67,-12.11,-13.29,0,*48
1534932128.2,55306,22.25,74600.3,19.67,-12.57,-13.87,0,*4D
1534932129.44,55307,22.19,74596.8,19.63,-12.15,-13.47,0,*42
1534932130.72,55308,22.19,74598.8,19.59,-11.55,-12.83,0,*4A
1534932131.95,55309,22.19,74598.0,19.59,-9.49,-10.85,0,*7B
1534932133.19,55310,22.19,74606.3,19.59,-10.05,-11.29,0,*44
1534932134.47,55311,22.19,74612.8,19.59,-10.71,-11.93,0,*47
1534932135.73,55312,22.19,74614.3,19.55,-9.31,-10.41,0,*7A
1534932136.94,55313,22.19,74618.3,19.57,-7.95,-9.05,0,*41
1534932138.13,55314,22.19,74618.8,19.57,-7.87,-8.97,0,*4F
1534932139.32,55315,22.19,74618.5,19.61,-7.87,-9.01,0,*45
1534932140.56,55316,22.19,74618.3,19.61,-7.61,-8.81,0,*47
1534932141.77,55317,22.19,74620.5,19.61,-7.53,-8.51,0,*4A
1534932142.99,55318,22.19,74622.3,19.65,-7.19,-8.29,0,*40
1534932144.23,55319,22.19,74616.8,19.65,-7.61,-8.67,0,*44
1534932145.47,55320,22.25,74620.3,19.69,-7.27,-8.25,0,*46
1534932146.71,55321,22.19,74620.8,19.69,-7.69,-8.75,0,*48
1534932147.96,55322,22.19,74620.3,19.69,-7.57,-8.85,0,*49
1534932149.18,55323,22.19,74616.5,19.71,-8.45,-9.45,0,*40
1534932150.38,55324,22.25,74624.0,19.71,-8.59,-9.67,0,*4A
1534932151.62,55325,22.19,74620.8,19.71,-8.51,-9.57,0,*40
1534932152.84,55326,22.19,74622.0,19.71,-8.45,-9.45,0,*45
1534932154.06,55327,22.19,74616.5,19.71,-7.57,-8.63,0,*4D
1534932155.25,55328,22.25,74620.5,19.75,-7.49,-8.41,0,*49
1534932156.45,55329,22.19,74618.3,19.75,-7.11,-8.21,0,*43
1534932157.67,55330,22.19,74624.0,19.77,-7.39,-8.67,0,*41
1534932158.87,55331,22.25,74624.3,19.79,-8.93,-10.05,0,*7C
1534932160.12,55332,22.19,74624.0,19.77,-10.49,-11.77,0,*4B
1534932161.34,55333,22.19,74622.5,19.77,-9.23,-10.45,0,*7E
1534932162.58,55334,22.25,74622.5,19.77,-8.03,-8.85,0,*4F
1534932163.8,55335,22.25,74624.3,19.77,-8.59,-9.75,0,*4F
1534932165.02,55336,22.19,74618.0,19.75,-10.49,-11.77,0,*4D
1534932166.22,55337,22.19,74616.3,19.71,-8.89,-9.93,0,*4E
1534932167.47,55338,22.19,74622.8,19.75,-9.49,-10.79,0,*74
1534932168.7,55339,22.25,74628.3,19.71,-11.19,-12.35,0,*47
1534932169.93,55340,22.19,74622.8,19.67,-10.89,-12.11,0,*40
1534932171.12,55341,22.19,74620.8,19.67,-9.67,-10.93,0,*71
1534932172.34,55342,22.19,74620.0,19.67,-9.89,-11.07,0,*7E
1534932173.6,55343,22.19,74620.0,19.65,-10.71,-12.03,0,*45
1534932174.82,55344,22.25,74622.8,19.63,-10.09,-11.23,0,*4A
1534932176.06,55345,22.19,74622.0,19.63,-8.75,-9.83,0,*4A
1534932177.29,55346,22.25,74622.0,19.61,-9.15,-10.15,0,*7B
1534932178.52,55347,22.19,74618.5,19.61,-8.07,-9.01,0,*45
1534932179.79,55348,22.19,74616.8,19.65,-7.73,-8.81,0,*4B
1534932181.01,55349,22.19,74620.3,19.65,-10.01,-11.01,0,*49
1534932182.27,55350,22.19,74622.0,19.63,-9.19,-10.41,0,*73
1534932183.51,55351,22.19,74624.0,19.65,-8.81,-9.79,0,*47
1534932184.75,55352,22.19,74620.0,19.65,-8.33,-9.49,0,*4E
1534932185.99,55353,22.25,74624.8,19.63,-8.21,-9.15,0,*43
1534932187.26,55354,22.19,74624.3,19.65,-8.03,-9.11,0,*46
1534932188.46,55355,22.25,74624.3,19.67,-8.71,-9.79,0,*4E
1534932189.67,55356,22.19,74622.0,19.67,-7.49,-8.51,0,*42
1534932190.91,55357,22.25,74624.3,19.69,-7.69,-8.75,0,*49
1534932192.15,55358,22.19,74622.0,19.69,-7.31,-8.25,0,*4E
1534932193.33,55359,22.19,74622.5,19.71,-8.21,-9.31,0,*4C
1534932194.56,55360,22.25,74620.0,19.71,-9.41,-10.49,0,*76
1534932195.78,55361,22.19,74618.8,19.71,-7.43,-8.59,0,*43
1534932196.99,55362,22.19,74620.5,19.75,-8.21,-9.37,0,*46
1534932198.19,55363,22.19,74616.0,19.71,-8.17,-9.23,0,*43
1534932199.4,55364,22.19,74616.5,19.71,-9.19,-10.27,0,*77
1534932200.66,55365,22.19,74616.3,19.71,-9.41,-10.67,0,*7F
1534932201.88,55366,22.25,74616.3,19.71,-8.37,-9.45,0,*44
1534932203.08,55367,22.25,74618.0,19.71,-8.71,-9.79,0,*48
1534932204.32,55368,22.19,74620.0,19.71,-9.15,-10.27,0,*77
1534932205.56,55369,22.19,74618.0,19.71,-7.39,-8.51,0,*4E
1534932206.77,55370,22.25,74624.3,19.75,-7.77,-8.71,0,*4A
1534932207.97,55371,22.19,74626.5,19.75,-9.75,-10.89,0,*79
1534932209.22,55372,22.19,74626.5,19.69,-10.15,-11.37,0,*4D
1534932210.45,55373,22.19,74628.5,19.69,-8.89,-9.89,0,*4C
1534932211.69,55374,22.19,74628.5,19.69,-8.29,-9.49,0,*4D
1534932212.93,55375,22.25,74634.3,19.69,-9.01,-10.19,0,*7A
1534932214.19,55376,22.25,74630.8,19.69,-10.27,-11.63,0,*49
1534932215.44,55377,22.19,74626.0,19.67,-11.67,-12.83,0,*4E
1534932216.67,55378,22.25,74628.5,19.65,-9.23,-10.31,0,*71
1534932217.9,55379,22.25,74630.8,19.65,-10.01,-11.01,0,*4A
1534932219.12,55380,22.25,74630.5,19.63,-8.97,-9.93,0,*4E
1534932220.4,55381,22.19,74626.5,19.65,-9.49,-10.71,0,*7F
1534932221.64,55382,22.19,74630.3,19.63,-10.49,-11.59,0,*49
1534932222.88,55383,22.19,74628.0,19.63,-8.45,-9.41,0,*4D
1534932224.12,55384,22.25,74630.0,19.63,-8.17,-9.15,0,*4C
1534932225.34,55385,22.25,74628.0,19.63,-9.79,-10.89,0,*79
1534932226.58,55386,22.19,74624.8,19.63,-8.37,-9.45,0,*49
1534932227.83,55387,22.19,74624.3,19.63,-9.15,-10.09,0,*79
1534932229.06,55388,22.25,74620.5,19.63,-9.31,-10.35,0,*7F
1534932230.3,55389,22.25,74620.3,19.63,-7.35,-8.21,0,*48
1534932231.54,55390,22.19,74620.5,19.65,-6.39,-7.35,0,*41
1534932232.78,55391,22.19,74618.5,19.69,-6.69,-7.69,0,*40
1534932234.02,55392,22.19,74618.3,19.69,-7.99,-8.89,0,*4C
1534932235.23,55393,22.25,74618.0,19.75,-8.33,-9.41,0,*4A
1534932236.45,55394,22.25,74612.3,19.71,-8.17,-9.15,0,*4E
1534932237.67,55395,22.25,74614.0,19.75,-6.47,-7.39,0,*40
1534932238.92,55396,22.25,74618.0,19.77,-5.93,-6.81,0,*49
1534932240.13,55397,22.25,74614.3,19.79,-6.13,-7.05,0,*40
1534932241.34,55398,22.25,74616.0,19.83,-5.73,-6.73,0,*4F
1534932242.56,55399,22.25,74616.3,19.85,-5.55,-6.35,0,*4E
1534932243.78,55400,22.25,74618.8,19.87,-5.23,-6.13,0,*4E
1534932245.01,55401,22.25,74616.8,19.91,-6.27,-7.31,0,*4E
1534932246.23,55402,22.25,74620.5,19.91,-6.77,-7.77,0,*4A
1534932247.47,55403,22.25,74620.5,19.93,-7.95,-8.97,0,*45
1534932248.72,55404,22.25,74622.5,19.93,-8.45,-9.53,0,*49
1534932249.94,55405,22.25,74624.3,19.93,-8.67,-9.67,0,*4F
1534932251.2,55406,22.25,74622.8,19.93,-9.15,-10.45,0,*70
1534932252.43,55407,22.19,74616.5,19.89,-8.97,-10.15,0,*74
1534932253.67,55408,22.25,74616.3,19.91,-8.07,-9.15,0,*43
1534932254.89,55409,22.25,74616.0,19.91,-7.95,-8.93,0,*49
1534932256.11,55410,22.25,74618.8,19.91,-9.67,-10.71,0,*77
1534932257.35,55411,22.25,74620.5,19.89,-8.41,-9.57,0,*46
1534932258.6,55412,22.25,74620.3,19.89,-7.43,-8.37,0,*4F
1534932259.81,55413,22.25,74620.8,19.89,-8.63,-9.89,0,*47
1534932261.05,55414,22.25,74620.5,19.89,-9.57,-10.85,0,*72
1534932262.29,55415,22.19,74622.8,19.89,-9.89,-11.29,0,*77
1534932263.54,55416,22.25,74624.5,19.85,-11.41,-12.61,0,*4A
1534932264.8,55417,22.25,74622.8,19.83,-10.41,-11.63,0,*4D
1534932266.0,55418,22.25,74620.0,19.83,-8.75,-9.79,0,*4E
1534932267.23,55419,22.19,74622.8,19.81,-9.19,-10.31,0,*72
1534932268.45,55420,22.19,74620.5,19.81,-8.25,-9.31,0,*4E
1534932269.73,55421,22.25,74624.8,19.81,-9.45,-10.67,0,*73
1534932270.95,55422,22.25,74624.0,19.79,-9.45,-10.53,0,*70
1534932272.15,55423,22.25,74626.3,19.79,-9.27,-10.19,0,*7B
1534932273.4,55424,22.25,74624.0,19.79,-7.05,-8.07,0,*44
1534932274.58,55425,22.25,74622.3,19.79,-8.25,-9.31,0,*4C
1534932275.77,55426,22.25,74624.3,19.79,-8.67,-9.71,0,*4D
1534932276.98,55427,22.25,74624.3,19.79,-7.99,-8.97,0,*4B
1534932278.22,55428,22.25,74626.5,19.81,-9.05,-10.19,0,*77
1534932279.46,55429,22.25,74626.5,19.81,-7.83,-8.81,0,*4E
1534932280.68,55430,22.19,74620.8,19.81,-8.17,-9.23,0,*4D
1534932281.93,55431,22.25,74628.8,19.81,-8.07,-9.05,0,*49
1534932283.15,55432,22.25,74628.3,19.81,-7.83,-8.93,0,*47
1534932284.39,55433,22.25,74628.8,19.81,-7.27,-8.25,0,*45
1534932285.61,55434,22.25,74628.5,19.83,-7.15,-8.11,0,*46
1534932286.82,55435,22.25,74630.0,19.87,-8.37,-9.49,0,*40
1534932288.09,55436,22.25,74628.3,19.85,-9.53,-10.75,0,*75
1534932289.32,55437,22.25,74628.5,19.85,-10.19,-11.45,0,*40
1534932290.61,55438,22.25,74626.0,19.81,-10.41,-11.55,0,*47
1534932291.87,55439,22.25,74630.5,19.81,-10.19,-11.51,0,*4F
1534932293.09,55440,22.25,74630.0,19.79,-10.27,-11.55,0,*4F
1534932294.37,55441,22.25,74628.5,19.77,-10.71,-11.77,0,*43
1534932295.62,55442,22.25,74630.0,19.77,-10.31,-11.59,0,*48
1534932296.85,55443,22.25,74630.5,19.71,-10.01,-11.07,0,*47
1534932298.07,55444,22.25,74634.3,19.71,-8.45,-9.41,0,*42
1534932299.31,55445,22.25,74628.3,19.69,-7.95,-8.93,0,*46
1534932300.52,55446,22.19,74626.3,19.69,-7.49,-8.41,0,*4B
1534932301.74,55447,22.25,74630.0,19.75,-6.73,-7.91,0,*4D
1534932302.95,55448,22.25,74622.0,19.75,-7.35,-8.33,0,*46
1534932304.16,55449,22.25,74620.8,19.79,-7.35,-8.45,0,*4A
1534932305.38,55450,22.19,74618.5,19.79,-7.15,-8.11,0,*41
1534932306.57,55451,22.25,74624.0,19.79,-6.77,-7.83,0,*41
1534932307.77,55452,22.25,74620.0,19.83,-6.81,-7.87,0,*4A
1534932309.01,55453,22.19,74618.8,19.85,-6.97,-8.21,0,*49
1534932310.25,55454,22.25,74622.5,19.85,-8.33,-9.37,0,*48
1534932311.48,55455,22.25,74624.5,19.83,-9.15,-10.23,0,*77
1534932312.67,55456,22.25,74620.3,19.83,-8.59,-9.67,0,*45
1534932313.88,55457,22.25,74620.3,19.83,-8.33,-9.41,0,*4C
1534932315.1,55458,22.25,74622.5,19.83,-8.07,-9.19,0,*49
1534932316.31,55459,22.25,74620.8,19.83,-7.39,-8.45,0,*42
1534932317.53,55460,22.25,74622.5,19.83,-7.15,-8.11,0,*47
1534932318.77,55461,22.25,74626.3,19.85,-6.81,-7.91,0,*4B
1534932319.96,55462,22.25,74626.5,19.87,-7.23,-8.41,0,*41
1534932321.18,55463,22.25,74624.5,19.87,-7.15,-8.03,0,*43
1534932322.42,55464,22.25,74624.0,19.89,-8.29,-9.49,0,*45
1534932323.66,55465,22.25,74624.0,19.89,-7.99,-9.05,0,*48
1534932324.88,55466,22.25,74622.8,19.89,-9.93,-11.15,0,*77
1534932326.1,55467,22.25,74624.3,19.87,-10.85,-12.11,0,*40
1534932327.32,55468,22.25,74624.5,19.85,-12.03,-13.15,0,*44
1534932328.56,55469,22.25,74628.8,19.81,-10.31,-11.41,0,*41
1534932329.83,55470,22.25,74624.8,19.81,-8.51,-9.57,0,*48
1534932331.07,55471,22.25,74624.5,19.81,-7.35,-8.29,0,*4C
1534932332.29,55472,22.25,74626.5,19.83,-6.39,-7.43,0,*43
1534932333.51,55473,22.25,74628.3,19.87,-5.23,-6.13,0,*4A
1534932334.73,55474,22.25,74626.5,19.87,-6.43,-7.61,0,*4C
1534932335.98,55475,22.25,74630.8,19.89,-8.37,-9.45,0,*46
1534932337.18,55476,22.25,74628.0,19.91,-9.05,-10.27,0,*70
1534932338.41,55477,22.25,74630.5,19.89,-9.31,-10.53,0,*7C
1534932339.68,55478,22.25,74628.3,19.89,-8.51,-9.61,0,*4D
1534932340.88,55479,22.25,74626.8,19.87,-8.97,-10.23,0,*76
1534932342.1,55480,22.25,74630.0,19.85,-9.75,-11.01,0,*7E
1534932343.32,55481,22.25,74628.5,19.85,-10.05,-11.19,0,*49
1534932344.53,55482,22.25,74628.3,19.83,-9.83,-10.93,0,*79
1534932345.75,55483,22.25,74626.5,19.83,-9.57,-10.97,0,*75
1534932347.0,55484,22.25,74630.0,19.81,-9.83,-11.23,0,*77
1534932348.25,55485,22.25,74628.5,19.79,-11.51,-12.71,0,*43
1534932349.48,55486,22.25,74628.8,19.79,-9.31,-10.63,0,*7E
1534932350.72,55487,22.25,74628.3,19.77,-9.67,-11.07,0,*71
1534932351.91,55488,22.25,74626.0,19.75,-9.89,-11.23,0,*7A
1534932353.12,55489,22.25,74624.8,19.71,-9.71,-10.93,0,*72
1534932354.38,55490,22.25,74622.3,19.71,-10.67,-11.93,0,*44
1534932355.63,55491,22.25,74620.3,19.69,-10.89,-12.11,0,*45
1534932356.89,55492,22.25,74618.5,19.67,-11.29,-12.75,0,*41
1534932358.1,55493,22.25,74614.5,19.67,-10.93,-12.25,0,*45
1534932359.38,55494,22.25,74618.8,19.63,-11.33,-12.71,0,*4C
1534932360.6,55495,22.25,74618.8,19.63,-10.09,-11.19,0,*48
1534932361.8,55496,22.25,74618.0,19.61,-10.15,-11.41,0,*49
1534932363.03,55497,22.25,74622.5,19.59,-11.15,-12.43,0,*43
1534932364.3,55498,22.25,74618.0,19.59,-10.75,-12.15,0,*48
1534932365.52,55499,22.25,74618.0,19.57,-10.23,-11.59,0,*4F
1534932366.75,55500,22.25,74622.5,19.55,-9.79,-10.89,0,*77
1534932367.96,55501,22.25,74622.8,19.57,-8.45,-9.61,0,*44
1534932369.19,55502,22.25,74618.3,19.57,-10.01,-11.07,0,*47
1534932370.44,55503,22.25,74618.8,19.55,-10.49,-11.73,0,*4B
1534932371.64,55504,22.25,74618.0,19.57,-10.89,-12.03,0,*46
1534932372.89,55505,22.25,74614.8,19.53,-11.89,-13.33,0,*40
1534932374.1,55506,22.25,74610.0,19.49,-12.25,-13.73,0,*49
1534932375.32,55507,22.25,74612.3,19.45,-13.07,-14.75,0,*44
1534932376.56,55508,22.25,74612.0,19.41,-12.79,-14.33,0,*45
1534932377.75,55509,22.25,74610.5,19.37,-12.43,-13.93,0,*41
1534932378.98,55510,22.25,74612.5,19.35,-13.43,-14.89,0,*46
1534932380.22,55511,22.25,74614.0,19.31,-15.21,-16.65,0,*41
1534932381.45,55512,22.25,74610.5,19.25,-12.97,-14.33,0,*4C
1534932382.73,55513,22.25,74610.0,19.21,-12.53,-14.01,0,*40
1534932383.95,55514,22.25,74610.5,19.19,-12.57,-13.65,0,*4D
1534932385.19,55515,22.25,74610.0,19.21,-11.81,-13.15,0,*48
1534932386.41,55516,22.25,74618.5,19.15,-11.19,-12.53,0,*4E
1534932387.62,55517,22.25,74612.8,19.15,-11.01,-12.25,0,*47
1534932388.85,55518,22.25,74616.5,19.17,-10.23,-11.41,0,*4A
1534932390.03,55519,22.25,74618.0,19.15,-10.05,-11.19,0,*40
1534932391.24,55520,22.25,74616.0,19.15,-8.21,-9.15,0,*40
1534932392.45,55521,22.25,74622.3,19.19,-8.29,-9.57,0,*43
1534932393.67,55522,22.25,74616.5,19.19,-7.35,-8.37,0,*45
1534932394.86,55523,22.25,74616.8,19.23,-7.15,-8.25,0,*4C
1534932396.06,55524,22.25,74620.3,19.27,-8.75,-10.01,0,*79
1534932397.26,55525,22.25,74616.8,19.31,-8.93,-10.23,0,*77
1534932398.45,55526,22.25,74616.3,19.27,-9.75,-11.11,0,*7A
1534932399.7,55527,22.25,74612.8,19.27,-9.61,-10.75,0,*7D
1534932400.9,55528,22.25,74614.0,19.27,-8.93,-10.05,0,*79
1534932402.1,55529,22.25,74616.5,19.27,-9.75,-10.97,0,*7A
1534932403.3,55530,22.25,74608.5,19.27,-9.67,-10.97,0,*71
1534932404.49,55531,22.25,74618.8,19.27,-9.89,-11.01,0,*7E
1534932405.73,55532,22.25,74618.8,19.27,-9.49,-10.75,0,*73
1534932406.95,55533,22.25,74620.5,19.27,-10.89,-11.97,0,*4B
1534932408.18,55534,22.25,74620.8,19.25,-9.23,-10.31,0,*7B
1534932409.39,55535,22.25,74616.0,19.25,-7.15,-8.17,0,*4C
1534932410.63,55536,22.25,74614.8,19.31,-6.23,-7.39,0,*4D
1534932411.84,55537,22.25,74616.0,19.35,-7.15,-8.29,0,*42
1534932413.05,55538,22.25,74618.8,19.37,-8.97,-10.15,0,*7C
1534932414.29,55539,22.25,74616.3,19.39,-7.05,-8.17,0,*4C
1534932415.56,55540,22.25,74620.8,19.39,-6.27,-7.31,0,*48
1534932416.78,55541,22.25,74618.8,19.43,-6.47,-7.49,0,*4D
1534932418.02,55542,22.25,74614.0,19.47,-6.39,-7.57,0,*4C
1534932419.26,55543,22.25,74612.5,19.47,-6.69,-7.73,0,*4E
1534932420.47,55544,22.25,74616.5,19.53,-5.69,-6.73,0,*4E
1534932421.69,55545,22.25,74618.0,19.57,-6.39,-7.35,0,*4E
1534932422.94,55546,22.25,74618.0,19.55,-10.93,-12.15,0,*4E
1534932424.22,55547,22.25,74618.8,19.55,-10.79,-12.07,0,*48
1534932425.47,55548,22.25,74618.8,19.53,-10.79,-12.15,0,*42
1534932426.7,55549,22.25,74618.8,19.49,-10.45,-11.89,0,*41
1534932427.94,55550,22.25,74622.3,19.49,-10.97,-12.35,0,*42
1534932429.14,55551,22.25,74622.8,19.45,-10.09,-11.45,0,*4C
1534932430.34,55552,22.25,74620.5,19.45,-10.23,-11.45,0,*47
1534932431.6,55553,22.25,74618.8,19.43,-10.49,-11.63,0,*48
1534932432.84,55554,22.25,74618.8,19.41,-9.15,-10.15,0,*7C
1534932434.08,55555,22.25,74618.8,19.43,-7.61,-8.55,0,*4F
1534932435.28,55556,22.25,74616.3,19.45,-6.73,-7.83,0,*4C
1534932436.52,55557,22.25,74618.5,19.47,-6.85,-7.91,0,*45
1534932437.75,55558,22.25,74618.8,19.47,-9.05,-10.15,0,*77
1534932438.96,55559,22.25,74614.3,19.49,-9.19,-10.23,0,*70
1534932440.2,55560,22.25,74618.5,19.49,-8.81,-9.83,0,*48
1534932441.44,55561,22.25,74618.8,19.53,-7.65,-8.51,0,*49
1534932442.66,55562,22.25,74616.3,19.49,-7.31,-8.45,0,*45
1534932443.87,55563,22.25,74618.5,19.53,-7.27,-8.59,0,*45
1534932445.11,55564,22.25,74618.5,19.57,-7.99,-9.11,0,*4E
1534932446.32,55565,22.25,74618.0,19.57,-7.31,-8.29,0,*47
1534932447.56,55566,22.25,74620.0,19.59,-8.55,-9.53,0,*4B
1534932448.79,55567,22.25,74620.5,19.59,-9.19,-10.15,0,*79
1534932450.0,55568,22.25,74622.5,19.59,-8.25,-9.23,0,*45
1534932451.21,55569,22.25,74616.3,19.57,-9.05,-10.19,0,*78
1534932452.42,55570,22.25,74616.3,19.57,-9.05,-10.15,0,*7C
1534932453.62,55571,22.25,74616.0,19.57,-9.05,-10.19,0,*71
1534932454.87,55572,22.25,74618.5,19.57,-10.71,-11.81,0,*49
1534932456.07,55573,22.25,74618.8,19.57,-10.89,-12.03,0,*46
1534932457.33,55574,22.25,74614.8,19.55,-11.45,-12.83,0,*4A
1534932458.54,55575,22.25,74616.3,19.49,-12.03,-13.23,0,*4C
1534932459.73,55576,22.25,74614.0,19.45,-12.03,-13.47,0,*41
1534932460.96,55577,22.25,74616.5,19.43,-12.21,-13.69,0,*4A
1534932462.25,55578,22.25,74616.3,19.39,-12.65,-13.97,0,*49
1534932463.48,55579,22.25,74610.8,19.37,-12.79,-14.29,0,*49
1534932464.7,55580,22.25,74604.3,19.35,-12.25,-13.47,0,*4B
1534932465.93,55581,22.25,74612.5,19.27,-12.97,-14.47,0,*47
1534932467.13,55582,22.25,74604.8,19.27,-12.93,-14.29,0,*48
1534932468.33,55583,22.25,74606.3,19.23,-13.15,-14.65,0,*4A
1534932469.56,55584,22.25,74610.8,19.19,-13.51,-14.93,0,*4D
1534932470.84,55585,22.25,74614.0,19.17,-13.29,-14.75,0,*45
1534932472.07,55586,22.25,74614.3,19.11,-12.71,-14.19,0,*46
1534932473.29,55587,22.25,74606.0,19.11,-12.57,-13.69,0,*43
1534932474.58,55588,22.25,74604.5,19.09,-12.53,-13.97,0,*40
1534932475.83,55589,22.25,74610.8,19.07,-11.29,-12.57,0,*4C
1534932477.06,55590,22.25,74614.0,19.07,-11.85,-13.11,0,*41
1534932478.31,55591,22.25,74610.5,19.03,-11.73,-13.01,0,*4C
1534932479.59,55592,22.25,74610.3,19.01,-13.37,-14.83,0,*42
1534932480.85,55593,22.25,74608.5,18.97,-13.01,-14.51,0,*47
1534932482.11,55594,22.25,74616.0,18.95,-11.67,-12.97,0,*4C
1534932483.37,55595,22.25,74620.5,18.93,-10.75,-11.89,0,*45
1534932484.62,55596,22.25,74616.3,18.95,-11.59,-13.07,0,*4B
1534932485.87,55597,22.25,74620.8,18.93,-12.07,-13.29,0,*48
1534932487.1,55598,22.25,74618.5,18.95,-10.19,-11.45,0,*44
1534932488.3,55599,22.25,74616.3,18.93,-10.05,-11.19,0,*47
1534932489.53,55600,22.25,74618.8,18.95,-10.97,-12.25,0,*45
1534932490.73,55601,22.25,74618.5,18.93,-11.11,-12.47,0,*49
1534932491.94,55602,22.25,74616.3,18.93,-11.23,-12.47,0,*4B
1534932493.2,55603,22.25,74612.8,18.91,-11.23,-12.53,0,*4D
1534932494.48,55604,22.25,74618.3,18.91,-11.51,-12.75,0,*4B
1534932495.69,55605,22.25,74620.5,18.89,-10.35,-11.45,0,*40
1534932496.96,55606,22.25,74618.3,18.91,-9.57,-10.71,0,*70
1534932498.19,55607,22.25,74620.0,18.89,-9.41,-10.49,0,*74
1534932499.43,55608,22.25,74622.8,18.91,-8.07,-9.19,0,*4C
1534932500.68,55609,22.25,74616.3,18.95,-7.43,-8.45,0,*4E
1534932501.88,55610,22.25,74620.5,18.97,-8.55,-9.67,0,*4D